| time (UTC) | temp F | wind direction | speed knots | gust knots | rain 1hr in | rain 24hr in | rain mn in | humidity % | barometer mb |
| 20260506211546 | 40 | 0 | 0.0 | 0.9 | 0.00 | 0.00 | 0.00 | 73 | 1015.8 |
| 20260506210041 | 40 | 0 | 0.0 | 3.5 | 0.00 | 0.00 | 0.00 | 72 | 1015.6 |
| 20260506204538 | 41 | 0 | 0.0 | 5.2 | 0.00 | 0.00 | 0.00 | 70 | 1015.7 |
| 20260506203038 | 41 | 0 | 0.0 | 4.3 | 0.00 | 0.00 | 0.00 | 69 | 1015.6 |
| 20260506201536 | 41 | 0 | 0.9 | 9.6 | 0.00 | 0.00 | 0.00 | 67 | 1015.6 |
| 20260506200043 | 42 | 0 | 0.9 | 7.8 | 0.00 | 0.00 | 0.00 | 66 | 1015.5 |
| 20260506194539 | 42 | 0 | 3.5 | 8.7 | 0.00 | 0.00 | 0.00 | 64 | 1015.5 |
| 20260506193039 | 43 | 269 | 3.5 | 13.0 | 0.00 | 0.00 | 0.00 | 62 | 1015.5 |
| 20260506191541 | 43 | 276 | 2.6 | 9.6 | 0.00 | 0.00 | 0.00 | 62 | 1015.4 |
| 20260506190037 | 44 | 276 | 3.5 | 14.8 | 0.00 | 0.00 | 0.00 | 62 | 1015.3 |
| 20260506184551 | 45 | 285 | 4.3 | 12.2 | 0.00 | 0.00 | 0.00 | 61 | 1015.1 |
| 20260506183053 | 45 | 0 | 4.3 | 13.0 | 0.00 | 0.00 | 0.00 | 63 | 1015.3 |
| 20260506181608 | 45 | 315 | 3.5 | 16.5 | 0.00 | 0.00 | 0.00 | 61 | 1015.1 |
| 20260506180042 | 46 | 267 | 6.1 | 16.5 | 0.00 | 0.00 | 0.00 | 61 | 1015.1 |
| 20260506174541 | 47 | 0 | 2.6 | 14.8 | 0.00 | 0.00 | 0.00 | 60 | 1015.1 |
| 20260506173056 | 47 | 250 | 5.2 | 19.1 | 0.00 | 0.00 | 0.00 | 60 | 1015.1 |
| 20260506171543 | 47 | 267 | 7.0 | 20.0 | 0.00 | 0.00 | 0.00 | 58 | 1015.0 |
| 20260506170042 | 48 | 284 | 7.8 | 17.4 | 0.00 | 0.00 | 0.00 | 58 | 1015.0 |
| 20260506164543 | 48 | 228 | 7.0 | 17.4 | 0.00 | 0.00 | 0.00 | 58 | 1014.9 |
| 20260506163040 | 48 | 275 | 9.6 | 20.0 | 0.00 | 0.00 | 0.00 | 57 | 1014.9 |
| 20260506161538 | 49 | 292 | 7.8 | 17.4 | 0.00 | 0.00 | 0.00 | 56 | 1014.9 |
| 20260506160037 | 50 | 291 | 7.8 | 19.1 | 0.00 | 0.00 | 0.00 | 53 | 1014.6 |
| 20260506154544 | 50 | 277 | 9.6 | 20.0 | 0.00 | 0.00 | 0.00 | 53 | 1014.9 |
| 20260506153059 | 50 | 266 | 11.3 | 19.1 | 0.00 | 0.00 | 0.00 | 51 | 1014.8 |
| 20260506151544 | 51 | 203 | 10.4 | 17.4 | 0.00 | 0.00 | 0.00 | 51 | 1014.9 |
| 20260506150046 | 52 | 277 | 8.7 | 16.5 | 0.00 | 0.00 | 0.00 | 54 | 1014.9 |
| 20260506144538 | 51 | 278 | 9.6 | 17.4 | 0.00 | 0.00 | 0.00 | 57 | 1015.0 |
| 20260506143040 | 52 | 281 | 7.0 | 17.4 | 0.00 | 0.00 | 0.00 | 55 | 1015.3 |
| 20260506141537 | 51 | 282 | 8.7 | 16.5 | 0.00 | 0.00 | 0.00 | 55 | 1015.2 |
| 20260506140039 | 51 | 0 | 6.1 | 19.1 | 0.00 | 0.00 | 0.00 | 57 | 1015.0 |
| 20260506134538 | 50 | 290 | 6.1 | 15.6 | 0.00 | 0.00 | 0.00 | 56 | 1015.1 |
| 20260506133037 | 50 | 278 | 6.1 | 18.2 | 0.00 | 0.00 | 0.00 | 56 | 1015.3 |
| 20260506131539 | 50 | 283 | 8.7 | 20.0 | 0.00 | 0.00 | 0.00 | 57 | 1015.4 |
| 20260506130042 | 51 | 257 | 8.7 | 17.4 | 0.00 | 0.00 | 0.00 | 55 | 1015.5 |
| 20260506124540 | 51 | 261 | 7.8 | 17.4 | 0.00 | 0.00 | 0.00 | 55 | 1015.3 |
| 20260506123039 | 51 | 270 | 8.7 | 18.2 | 0.00 | 0.00 | 0.00 | 53 | 1015.2 |
| 20260506121538 | 51 | 294 | 2.6 | 15.6 | 0.00 | 0.00 | 0.00 | 52 | 1015.4 |
| 20260506120044 | 52 | 298 | 7.0 | 14.8 | 0.00 | 0.00 | 0.00 | 52 | 1015.6 |
| 20260506114543 | 52 | 275 | 8.7 | 15.6 | 0.00 | 0.00 | 0.00 | 52 | 1015.6 |
| 20260506113043 | 52 | 278 | 7.0 | 13.9 | 0.00 | 0.00 | 0.00 | 52 | 1015.3 |
| 20260506111539 | 49 | 277 | 7.0 | 15.6 | 0.00 | 0.00 | 0.00 | 58 | 1015.4 |
| 20260506110038 | 48 | 280 | 8.7 | 13.9 | 0.00 | 0.00 | 0.00 | 59 | 1015.6 |
| 20260506104536 | 49 | 276 | 7.8 | 15.6 | 0.00 | 0.00 | 0.00 | 61 | 1015.5 |
| 20260506103052 | 50 | 286 | 7.8 | 14.8 | 0.00 | 0.00 | 0.00 | 60 | 1015.5 |
| 20260506101541 | 49 | 267 | 4.3 | 10.4 | 0.00 | 0.00 | 0.00 | 59 | 1015.3 |
| 20260506100039 | 49 | 281 | 8.7 | 14.8 | 0.00 | 0.00 | 0.00 | 60 | 1015.5 |
| 20260506094540 | 50 | 0 | 0.0 | 10.4 | 0.00 | 0.00 | 0.00 | 57 | 1015.4 |
| 20260506093037 | 47 | 0 | 0.0 | 8.7 | 0.00 | 0.00 | 0.00 | 60 | 1015.6 |
| 20260506091536 | 49 | 0 | 2.6 | 12.2 | 0.00 | 0.00 | 0.00 | 59 | 1015.5 |
| 20260506090041 | 50 | 0 | 5.2 | 11.3 | 0.00 | 0.00 | 0.00 | 58 | 1015.4 |
| 20260506084546 | 52 | 0 | 0.0 | 9.6 | 0.00 | 0.00 | 0.00 | 52 | 1015.3 |
| 20260506083040 | 53 | 274 | 0.0 | 12.2 | 0.00 | 0.00 | 0.00 | 52 | 1015.2 |
| 20260506081540 | 50 | 275 | 1.7 | 8.7 | 0.00 | 0.00 | 0.00 | 58 | 1015.2 |
| 20260506073041 | 46 | 0 | 1.7 | 7.8 | 0.00 | 0.00 | 0.00 | 63 | 1015.2 |
| 20260506071542 | 45 | 0 | 0.0 | 3.5 | 0.00 | 0.00 | 0.00 | 63 | 1015.1 |
| 20260506061536 | 38 | 0 | 0.0 | 0.0 | 0.00 | 0.00 | 0.00 | 90 | 1015.2 |
| 20260506044542 | 33 | 0 | 0.0 | 0.0 | 0.00 | 0.00 | 0.00 | 91 | 1014.7 |
| 20260506043040 | 32 | 0 | 0.0 | 0.0 | 0.00 | 0.00 | 0.00 | 92 | 1014.7 |
| 20260506041538 | 30 | 0 | 0.0 | 0.0 | 0.00 | 0.00 | 0.00 | 92 | 1014.6 |
| 20260506040040 | 30 | 0 | 0.0 | 0.0 | 0.00 | 0.00 | 0.00 | 91 | 1014.6 |
| 20260506034545 | 30 | 0 | 0.0 | 0.0 | 0.00 | 0.00 | 0.00 | 91 | 1014.6 |
| 20260506033042 | 31 | 0 | 0.0 | 0.0 | 0.00 | 0.00 | 0.00 | 91 | 1014.7 |
| 20260506031543 | 31 | 0 | 0.0 | 0.0 | 0.00 | 0.00 | 0.00 | 91 | 1014.6 |
| 20260506030043 | 31 | 0 | 0.0 | 0.0 | 0.00 | 0.00 | 0.00 | 91 | 1014.6 |
| 20260506024557 | 31 | 0 | 0.0 | 0.0 | 0.00 | 0.00 | 0.00 | 90 | 1014.6 |
| 20260506023037 | 31 | 0 | 0.0 | 0.0 | 0.00 | 0.00 | 0.00 | 90 | 1014.5 |
| 20260506021544 | 32 | 0 | 0.0 | 0.0 | 0.00 | 0.00 | 0.00 | 89 | 1014.8 |
| 20260506020040 | 32 | 0 | 0.0 | 0.0 | 0.00 | 0.00 | 0.00 | 89 | 1014.7 |
| 20260506014546 | 32 | 0 | 0.0 | 0.0 | 0.00 | 0.00 | 0.00 | 89 | 1014.7 |
| 20260506013058 | 32 | 0 | 0.0 | 0.0 | 0.00 | 0.00 | 0.00 | 89 | 1014.7 |
| 20260506011556 | 32 | 0 | 0.0 | 0.0 | 0.00 | 0.00 | 0.00 | 88 | 1014.7 |
| 20260506010038 | 32 | 0 | 0.0 | 0.0 | 0.00 | 0.00 | 0.00 | 88 | 1014.7 |
| 20260506004543 | 33 | 0 | 0.0 | 0.0 | 0.00 | 0.00 | 0.00 | 86 | 1014.6 |
| 20260506003041 | 35 | 0 | 0.0 | 0.0 | 0.00 | 0.00 | 0.00 | 83 | 1014.6 |
| 20260506001544 | 36 | 0 | 0.0 | 0.0 | 0.00 | 0.00 | 0.00 | 83 | 1014.8 |
| 20260506000040 | 37 | 0 | 0.0 | 0.0 | 0.00 | 0.00 | 0.00 | 81 | 1014.7 |
| 20260505234539 | 36 | 0 | 0.0 | 0.0 | 0.00 | 0.00 | 0.00 | 83 | 1014.8 |
| 20260505233036 | 36 | 0 | 0.0 | 0.0 | 0.00 | 0.00 | 0.00 | 82 | 1014.7 |
| 20260505231538 | 36 | 0 | 0.0 | 0.0 | 0.00 | 0.00 | 0.00 | 83 | 1014.8 |
| 20260505230054 | 36 | 0 | 0.0 | 0.0 | 0.00 | 0.00 | 0.00 | 83 | 1014.7 |
| 20260505224540 | 36 | 0 | 0.0 | 0.0 | 0.00 | 0.00 | 0.00 | 83 | 1014.8 |
| 20260505223053 | 36 | 0 | 0.0 | 0.0 | 0.00 | 0.00 | 0.00 | 83 | 1014.7 |
| 20260505221539 | 36 | 0 | 0.0 | 0.0 | 0.00 | 0.00 | 0.00 | 82 | 1014.7 |
| 20260505220042 | 37 | 0 | 0.0 | 0.0 | 0.00 | 0.00 | 0.00 | 81 | 1014.7 |
| 20260505214536 | 37 | 0 | 0.0 | 0.0 | 0.00 | 0.00 | 0.00 | 80 | 1014.7 |
| 20260505213053 | 38 | 0 | 0.0 | 0.0 | 0.00 | 0.00 | 0.00 | 80 | 1014.7 |